Location: Newark
(40.2333°N, 1.4000°W)
Time: 19:43:40
(UTC+00:00)

Envisat - Visible Passes

Search period start: 21 March 2019 00:00
Search period end: 31 March 2019 00:00
Orbit: 764 x 766 km, 98.2° (Epoch: 21 March)

Date Brightness Start Highest point End Pass type
(mag) Time Alt. Az. Time Alt. Az. Time Alt. Az.
21 Mar 4.3 19:15:22 10° S 19:20:10 43° W 19:25:01 10° NNW visible
22 Mar 3.0 18:38:18 10° SSE 18:43:22 84° ENE 18:48:29 10° NNW visible
22 Mar 6.3 20:22:10 10° W 20:23:00 10° W 20:23:49 10° W visible
23 Mar 5.3 19:41:46 10° SSW 19:45:52 25° W 19:49:59 10° NW visible
24 Mar 3.8 19:03:57 10° S 19:08:55 55° W 19:13:55 10° NNW visible
25 Mar 6.0 20:09:07 10° WSW 20:11:39 14° W 20:14:10 10° WNW visible
26 Mar 5.0 19:30:06 10° SSW 19:34:34 31° W 19:39:04 10° NW visible
27 Mar 3.4 18:52:38 10° S 18:57:41 71° WSW 19:02:46 10° NNW visible
28 Mar 5.8 19:56:57 10° SW 20:00:19 18° W 20:03:41 10° NW visible
29 Mar 4.5 19:18:34 10° SSW 19:23:18 39° W 19:28:03 10° NNW visible
